K5BOU Weather Reports


time (UTC)temp
F
wind
direction
speed
knots
gust
knots
rain 1hr
in
rain 24hr
in
rain mn
in
humidity
%
barometer
mb
20260831223740 95 181 1.7 5.2 0.00 0.00 0.00 61 1012.0
20260831223237 94 155 0.9 4.3 0.00 0.00 0.00 62 1011.9
20260831222733 95 188 0.9 6.1 0.00 0.00 0.00 62 1011.9
20260831222228 95 196 1.7 6.1 0.00 0.00 0.00 62 1012.1
20260831221724 94 175 3.5 6.1 0.00 0.00 0.00 62 1012.1
20260831221219 94 173 0.9 2.6 0.00 0.00 0.00 62 1012.1
20260831220714 94 174 1.7 5.2 0.00 0.00 0.00 62 1012.0
20260831220209 94 205 0.9 1.7 0.00 0.00 0.00 63 1011.9
20260831215704 94 95 0.9 2.6 0.00 0.00 0.00 63 1011.9
20260831215200 93 154 0.0 6.1 0.00 0.00 0.00 63 1011.9
20260831214657 93 170 0.0 6.1 0.00 0.00 0.00 64 1012.2
20260831214153 93 180 0.0 4.3 0.00 0.00 0.00 63 1012.2
20260831213649 93 91 0.9 5.2 0.00 0.00 0.00 63 1012.3
20260831213144 93 127 2.6 6.1 0.00 0.00 0.00 64 1012.4
20260831212641 93 149 0.9 7.0 0.00 0.00 0.00 64 1012.3
20260831212137 93 181 0.0 1.7 0.00 0.00 0.00 65 1012.4
20260831211636 94 187 1.7 6.1 0.00 0.00 0.00 65 1012.5
20260831211136 94 185 0.0 2.6 0.00 0.00 0.00 64 1012.4
20260831210630 94 172 0.0 1.7 0.00 0.00 0.00 65 1012.5
20260831210127 94 171 2.6 6.1 0.00 0.00 0.00 65 1012.6
20260831205626 95 196 0.9 2.6 0.00 0.00 0.00 65 1012.7
20260831205122 96 186 0.9 4.3 0.00 0.00 0.00 65 1012.8
20260831204622 96 214 1.7 6.1 0.00 0.00 0.00 64 1012.7
20260831204120 95 169 0.0 4.3 0.00 0.00 0.00 67 1012.5
20260831203615 93 96 0.9 8.7 0.00 0.00 0.00 68 1012.8
20260831203114 94 135 2.6 5.2 0.00 0.00 0.00 67 1012.8
20260831202613 94 134 0.0 1.7 0.00 0.00 0.00 66 1012.9
20260831202108 94 156 1.7 2.6 0.00 0.00 0.00 64 1012.9
20260831201606 94 70 0.9 4.3 0.00 0.00 0.00 64 1012.8
20260831201102 95 188 0.0 1.7 0.00 0.00 0.00 61 1012.8
20260831200557 95 153 0.9 1.7 0.00 0.00 0.00 61 1013.0
20260831200052 96 100 0.9 1.7 0.00 0.00 0.00 61 1013.1
20260831195548 96 125 1.7 2.6 0.00 0.00 0.00 59 1012.9
20260831195042 96 134 1.7 2.6 0.00 0.00 0.00 59 1013.1
20260831194537 96 323 1.7 2.6 0.00 0.00 0.00 58 1013.1
20260831194032 95 165 2.6 2.6 0.00 0.00 0.00 59 1013.4
20260831193528 96 192 0.9 1.7 0.00 0.00 0.00 59 1013.3
20260831193022 97 176 0.9 1.7 0.00 0.00 0.00 58 1013.4
20260831192517 96 166 2.6 6.1 0.00 0.00 0.00 59 1013.3
20260831192013 96 200 1.7 5.2 0.00 0.00 0.00 59 1013.4
20260831191503 95 271 0.9 1.7 0.00 0.00 0.00 60 1013.5
20260831190958 95 230 0.0 1.7 0.00 0.00 0.00 60 1013.8
20260831190454 95 167 0.9 2.6 0.00 0.00 0.00 62 1013.6
20260831185952 93 179 1.7 5.2 0.00 0.00 0.00 62 1013.6
20260831185449 96 254 2.6 2.6 0.00 0.00 0.00 59 1013.9
20260831184948 97 210 0.0 0.9 0.00 0.00 0.00 59 1014.0
20260831184443 97 220 0.9 4.3 0.00 0.00 0.00 59 1014.0
20260831183939 95 202 0.0 1.7 0.00 0.00 0.00 60 1014.1
20260831183438 97 165 0.0 0.9 0.00 0.00 0.00 60 1013.8
20260831182937 96 203 0.0 2.6 0.00 0.00 0.00 60 1014.2
20260831182433 96 167 0.9 1.7 0.00 0.00 0.00 58 1014.1
20260831181928 96 59 1.7 1.7 0.00 0.00 0.00 59 1014.3
20260831181424 96 202 0.0 0.9 0.00 0.00 0.00 59 1014.3
20260831180924 96 98 0.0 1.7 0.00 0.00 0.00 59 1014.4
20260831180418 95 199 0.0 0.9 0.00 0.00 0.00 61 1014.6
20260831175917 95 208 0.9 0.9 0.00 0.00 0.00 58 1014.7
20260831175414 96 180 0.0 4.3 0.00 0.00 0.00 60 1014.7
20260831174909 96 152 2.6 2.6 0.00 0.00 0.00 58 1014.7
20260831174405 94 167 2.6 4.3 0.00 0.00 0.00 59 1014.7
20260831173904 94 183 0.9 2.6 0.00 0.00 0.00 61 1014.8
20260831173403 95 185 1.7 1.7 0.00 0.00 0.00 61 1014.9
20260831172859 95 161 0.0 2.6 0.00 0.00 0.00 65 1015.0
20260831172355 93 195 0.0 4.3 0.00 0.00 0.00 65 1014.9
20260831171855 92 196 1.7 2.6 0.00 0.00 0.00 64 1015.0
20260831171351 91 199 0.0 1.7 0.00 0.00 0.00 70 1015.1
20260831170848 92 200 0.0 1.7 0.00 0.00 0.00 67 1014.9
20260831170343 93 175 0.0 0.9 0.00 0.00 0.00 67 1015.1
20260831165839 94 204 0.9 1.7 0.00 0.00 0.00 67 1015.1
20260831165335 93 182 0.0 2.6 0.00 0.00 0.00 67 1015.3
20260831164832 92 157 1.7 5.2 0.00 0.00 0.00 66 1015.0
20260831164328 92 198 0.0 0.9 0.00 0.00 0.00 66 1014.9
20260831163823 92 228 0.9 1.7 0.00 0.00 0.00 68 1015.1
20260831163319 93 180 0.0 0.0 0.00 0.00 0.00 67 1015.1
20260831162817 92 160 0.0 0.9 0.00 0.00 0.00 69 1015.3
20260831162313 91 154 0.9 1.7 0.00 0.00 0.00 70 1015.2
20260831161811 92 36 2.6 4.3 0.00 0.00 0.00 69 1015.3
20260831161307 91 174 0.0 0.9 0.00 0.00 0.00 73 1015.2
20260831160802 91 163 0.9 0.9 0.00 0.00 0.00 73 1015.4
20260831160256 89 188 0.0 4.3 0.00 0.00 0.00 78 1015.3
20260831155751 89 194 0.0 1.7 0.00 0.00 0.00 76 1015.4
20260831155246 89 212 3.5 4.3 0.00 0.00 0.00 76 1015.1
20260831154742 89 217 2.6 4.3 0.00 0.00 0.00 76 1015.3
20260831154238 90 158 0.0 2.6 0.00 0.00 0.00 78 1015.4
20260831153736 91 187 0.0 0.9 0.00 0.00 0.00 77 1015.4
20260831153232 90 189 0.0 0.9 0.00 0.00 0.00 79 1015.3
20260831152728 89 122 0.9 1.7 0.00 0.00 0.00 81 1015.2
20260831152224 87 154 0.0 0.9 0.00 0.00 0.00 85 1015.1
20260831151723 87 171 0.0 1.7 0.00 0.00 0.00 84 1015.3
20260831151218 87 191 0.0 2.6 0.00 0.00 0.00 85 1015.3
20260831150713 87 200 0.0 0.9 0.00 0.00 0.00 83 1015.4
20260831150208 87 191 0.0 4.3 0.00 0.00 0.00 84 1015.2
20260831145708 86 191 0.0 1.7 0.00 0.00 0.00 85 1015.0
20260831145204 86 204 1.7 4.3 0.00 0.00 0.00 86 1015.2
20260831144700 86 187 0.0 0.9 0.00 0.00 0.00 87 1015.0
20260831144155 87 190 0.0 1.7 0.00 0.00 0.00 85 1015.1
20260831143654 89 202 0.0 0.9 0.00 0.00 0.00 83 1015.0
20260831143150 89 181 0.0 0.0 0.00 0.00 0.00 84 1014.9
20260831142646 87 183 0.0 0.9 0.00 0.00 0.00 87 1015.1
20260831142142 87 181 0.0 0.0 0.00 0.00 0.00 88 1015.2
20260831141640 86 169 0.9 0.9 0.00 0.00 0.00 89 1014.9
20260831141136 86 186 0.9 0.9 0.00 0.00 0.00 90 1014.9
20260831140635 86 178 0.0 0.0 0.00 0.00 0.00 90 1014.9
20260831140131 85 193 0.0 1.7 0.00 0.00 0.00 91 1014.8
20260831135628 86 180 0.0 0.0 0.00 0.00 0.00 90 1014.9
20260831135124 84 180 0.0 0.0 0.00 0.00 0.00 93 1014.9
20260831134620 84 181 0.0 0.0 0.00 0.00 0.00 92 1014.7
20260831134114 84 173 0.0 0.0 0.00 0.00 0.00 93 1014.8
20260831133614 82 178 0.0 0.0 0.00 0.00 0.00 98 1014.8
20260831133109 81 173 0.0 0.9 0.00 0.00 0.00 99 1014.8
20260831132605 80 157 0.0 0.0 0.00 0.00 0.00 99 1014.9
20260831132103 80 167 0.0 0.0 0.00 0.00 0.00 99 1014.6
20260831131558 79 180 0.0 0.0 0.00 0.00 0.00 99 1014.8
20260831131055 78 175 0.0 0.0 0.00 0.00 0.00 99 1014.8
20260831130549 78 178 0.0 0.0 0.00 0.00 0.00 99 1014.9
20260831130045 77 175 0.0 0.0 0.00 0.00 0.00 99 1014.6
20260831125538 77 194 0.0 0.0 0.00 0.00 0.00 99 1014.5
20260831125034 76 194 0.0 0.0 0.00 0.00 0.00 99 1014.3
20260831124530 75 195 0.0 0.0 0.00 0.00 0.00 99 1014.5
20260831124026 75 196 0.0 0.0 0.00 0.00 0.00 99 1014.4
20260831123525 74 196 0.0 0.0 0.00 0.00 0.00 99 1014.2
20260831123020 74 197 0.0 0.0 0.00 0.00 0.00 99 1014.2
20260831122520 74 196 0.0 0.0 0.00 0.00 0.00 99 1014.0
20260831122015 74 196 0.0 0.0 0.00 0.00 0.00 99 1014.1
20260831121510 74 197 0.0 0.0 0.00 0.00 0.00 99 1013.9
20260831121006 74 197 0.0 0.0 0.00 0.00 0.00 99 1013.8
20260831120505 74 198 0.0 0.0 0.00 0.00 0.00 99 1013.9
20260831120000 74 199 0.0 1.7 0.00 0.00 0.00 99 1013.8
20260831115456 74 196 0.0 0.9 0.00 0.00 0.00 99 1013.8
20260831114951 74 197 0.0 0.0 0.00 0.00 0.00 99 1013.9
20260831114449 74 197 0.0 0.0 0.00 0.00 0.00 99 1013.9
20260831113945 74 190 0.0 0.0 0.00 0.00 0.00 99 1013.9
20260831113444 74 190 0.0 0.0 0.00 0.00 0.00 99 1014.0
20260831112940 75 190 0.0 0.0 0.00 0.00 0.00 99 1013.7
20260831112440 74 190 0.0 0.0 0.00 0.00 0.00 99 1014.0
20260831111935 74 190 0.0 0.0 0.00 0.00 0.00 99 1013.7
20260831111431 74 185 0.0 0.0 0.00 0.00 0.00 99 1013.8
20260831110926 74 185 0.0 0.0 0.00 0.00 0.00 99 1013.7
20260831110421 74 184 0.0 0.0 0.00 0.00 0.00 99 1014.0
20260831105920 75 184 0.0 0.0 0.00 0.00 0.00 99 1013.7
20260831105416 75 184 0.0 0.0 0.00 0.00 0.00 99 1013.8
20260831104911 75 184 0.0 0.0 0.00 0.00 0.00 99 1013.7
20260831104407 74 184 0.0 0.0 0.00 0.00 0.00 99 1013.5
20260831103902 75 184 0.0 0.0 0.00 0.00 0.00 99 1013.8
20260831103358 75 184 0.0 0.0 0.00 0.00 0.00 99 1013.9
20260831102853 75 184 0.0 0.0 0.00 0.00 0.00 99 1013.8
20260831102353 75 184 0.0 0.0 0.00 0.00 0.00 99 1013.8
20260831101848 75 184 0.0 0.0 0.00 0.00 0.00 99 1013.8
20260831101348 75 184 0.0 0.0 0.00 0.00 0.00 99 1013.9
20260831100845 75 183 0.0 0.0 0.00 0.00 0.00 99 1014.1
20260831100341 75 184 0.0 0.0 0.00 0.00 0.00 99 1013.9
20260831095840 75 184 0.0 0.0 0.00 0.00 0.00 99 1013.8
20260831095339 75 184 0.0 0.0 0.00 0.00 0.00 99 1013.7
20260831094835 75 184 0.0 0.0 0.00 0.00 0.00 99 1013.7
20260831094330 75 183 0.0 0.0 0.00 0.00 0.00 99 1013.8
20260831093826 75 183 0.0 0.0 0.00 0.00 0.00 99 1013.8
20260831093321 75 183 0.0 0.0 0.00 0.00 0.00 99 1013.6
20260831092818 75 183 0.0 0.0 0.00 0.00 0.00 99 1013.8
20260831092314 76 183 0.0 0.0 0.00 0.00 0.00 99 1013.8
20260831091814 76 178 0.0 0.0 0.00 0.00 0.00 99 1013.7
20260831091304 76 162 0.0 1.7 0.00 0.00 0.00 99 1013.8
20260831090759 75 161 0.0 0.0 0.00 0.00 0.00 99 1013.8
20260831090255 75 196 0.0 0.0 0.00 0.00 0.00 99 1013.7
20260831085751 75 196 0.0 0.0 0.00 0.00 0.00 99 1013.8
20260831085245 75 196 0.0 0.0 0.00 0.00 0.00 99 1013.8
20260831084740 75 196 0.0 0.0 0.00 0.00 0.00 99 1013.9
20260831084237 75 196 0.0 0.0 0.00 0.00 0.00 99 1014.0
20260831083732 75 196 0.0 0.0 0.00 0.00 0.00 99 1013.9
20260831083228 76 196 0.0 0.0 0.00 0.00 0.00 99 1013.9
20260831082726 76 196 0.0 0.0 0.00 0.00 0.00 99 1014.0
20260831082222 76 196 0.0 0.0 0.00 0.00 0.00 99 1014.0
20260831081717 76 196 0.0 0.0 0.00 0.00 0.00 99 1013.8
20260831081213 76 196 0.0 0.0 0.00 0.00 0.00 99 1013.6
20260831080703 76 196 0.0 0.0 0.00 0.00 0.00 99 1013.9
20260831080202 76 196 0.0 0.0 0.00 0.00 0.00 99 1013.8
20260831075658 76 196 0.0 0.0 0.00 0.00 0.00 99 1013.9
20260831075154 76 196 0.0 0.0 0.00 0.00 0.00 99 1013.8
20260831074652 76 196 0.0 0.0 0.00 0.00 0.00 99 1013.9
20260831074147 76 197 0.0 0.0 0.00 0.00 0.00 99 1013.9
20260831073642 76 196 0.0 0.0 0.00 0.00 0.00 99 1014.1
20260831073142 76 196 0.0 0.0 0.00 0.00 0.00 99 1014.0
20260831072637 76 196 0.0 0.0 0.00 0.00 0.00 99 1013.9
20260831072134 77 196 0.0 0.0 0.00 0.00 0.00 99 1013.8
20260831071632 76 196 0.0 0.0 0.00 0.00 0.00 99 1013.9
20260831071128 76 196 0.0 0.0 0.00 0.00 0.00 99 1014.1
20260831070627 77 196 0.0 0.0 0.00 0.00 0.00 99 1014.1
20260831070122 77 196 0.0 0.0 0.00 0.00 0.00 99 1013.9
20260831065620 77 196 0.0 0.0 0.00 0.00 0.00 99 1014.1
20260831065114 77 196 0.0 0.0 0.00 0.00 0.00 99 1014.1
20260831064614 77 196 0.0 0.0 0.00 0.00 0.00 99 1014.1
20260831064110 77 196 0.0 0.0 0.00 0.00 0.00 99 1014.4
20260831063605 77 196 0.0 0.0 0.00 0.00 0.00 99 1014.3
20260831063100 77 196 0.0 0.0 0.00 0.00 0.00 99 1014.3
20260831062555 77 196 0.0 0.0 0.00 0.00 0.00 99 1014.2
20260831062055 77 196 0.0 0.0 0.00 0.00 0.00 99 1014.4
20260831061553 77 196 0.0 0.0 0.00 0.00 0.00 99 1014.2
20260831061049 77 196 0.0 0.0 0.00 0.00 0.00 99 1014.2
20260831060544 77 197 0.0 0.0 0.00 0.00 0.00 99 1014.0
20260831060039 78 195 0.0 0.0 0.00 0.00 0.00 99 1014.5
20260831055533 78 179 0.0 0.0 0.00 0.00 0.00 99 1014.3
20260831055029 78 183 0.0 0.0 0.00 0.00 0.00 99 1014.4
20260831054529 77 202 0.0 0.0 0.00 0.00 0.00 99 1014.3
20260831054028 78 202 0.0 0.0 0.00 0.00 0.00 99 1014.1
20260831053526 77 202 0.0 0.0 0.00 0.00 0.00 99 1014.1
20260831053021 78 190 0.0 0.9 0.00 0.00 0.00 99 1014.4
20260831052520 78 185 0.0 0.0 0.00 0.00 0.00 99 1014.2
20260831052015 78 185 0.0 0.0 0.00 0.00 0.00 98 1014.2
20260831051513 78 185 0.0 0.0 0.00 0.00 0.00 98 1014.1
20260831051013 78 185 0.0 0.0 0.00 0.00 0.00 97 1014.0
20260831050512 79 185 0.0 0.0 0.00 0.00 0.00 97 1013.7
20260831050011 79 185 0.0 0.0 0.00 0.00 0.00 96 1013.9
20260831045510 79 185 0.0 0.0 0.00 0.00 0.00 96 1014.2
20260831045006 80 185 0.0 0.0 0.00 0.00 0.00 96 1014.1
20260831044501 80 185 0.0 0.0 0.00 0.00 0.00 95 1014.1
20260831043956 80 182 0.0 0.0 0.00 0.00 0.00 95 1014.0
20260831043456 80 184 0.0 0.9 0.00 0.00 0.00 95 1013.8
20260831042951 80 200 0.0 0.9 0.00 0.00 0.00 94 1013.8
20260831042451 80 182 0.0 0.9 0.00 0.00 0.00 94 1014.0
20260831041951 80 187 0.9 2.6 0.00 0.00 0.00 94 1013.7
20260831041445 80 189 0.0 0.0 0.00 0.00 0.00 95 1013.7
20260831040940 80 188 0.0 0.0 0.00 0.00 0.00 94 1013.8
20260831040435 80 199 0.0 0.9 0.00 0.00 0.00 94 1013.7
20260831035932 80 188 0.0 0.0 0.00 0.00 0.00 94 1013.7
20260831035432 80 195 0.0 0.0 0.00 0.00 0.00 93 1013.6
20260831034927 80 195 0.0 0.0 0.00 0.00 0.00 93 1013.7
20260831034422 81 194 0.0 0.9 0.00 0.00 0.00 92 1013.6
20260831033917 81 188 0.0 0.0 0.00 0.00 0.00 92 1013.5
20260831033413 81 190 0.0 0.0 0.00 0.00 0.00 91 1013.5
20260831032908 81 187 0.0 0.0 0.00 0.00 0.00 91 1013.5
20260831032402 82 200 0.0 0.0 0.00 0.00 0.00 89 1013.3
20260831031857 82 182 0.0 1.7 0.00 0.00 0.00 89 1013.5
20260831031356 82 184 0.0 1.7 0.00 0.00 0.00 88 1013.4
20260831030851 82 188 0.9 1.7 0.00 0.00 0.00 88 1013.3
20260831030350 83 199 0.0 0.9 0.00 0.00 0.00 88 1013.1
20260831025844 83 200 0.9 0.9 0.00 0.00 0.00 87 1013.3
20260831025343 83 166 2.6 2.6 0.00 0.00 0.00 86 1012.8
20260831024839 84 183 0.0 1.7 0.00 0.00 0.00 85 1012.8
20260831024338 84 142 0.0 2.6 0.00 0.00 0.00 85 1012.8
20260831023838 84 176 0.0 2.6 0.00 0.00 0.00 84 1012.9
20260831023336 84 179 1.7 2.6 0.00 0.00 0.00 84 1012.7
20260831022831 84 166 1.7 5.2 0.00 0.00 0.00 83 1012.5
20260831022330 85 178 0.0 2.6 0.00 0.00 0.00 83 1012.4
20260831021825 85 164 0.9 4.3 0.00 0.00 0.00 82 1012.5
20260831021325 85 170 2.6 4.3 0.00 0.00 0.00 81 1012.3
20260831020821 85 184 0.9 6.1 0.00 0.00 0.00 81 1012.3
20260831020321 86 181 2.6 4.3 0.00 0.00 0.00 81 1012.1
20260831015816 86 126 2.6 6.1 0.00 0.00 0.00 80 1012.0
20260831015312 86 140 2.6 2.6 0.00 0.00 0.00 80 1012.0
20260831014812 86 179 1.7 2.6 0.00 0.00 0.00 79 1011.9
20260831014306 86 186 0.9 4.3 0.00 0.00 0.00 78 1012.1
20260831013803 87 145 1.7 2.6 0.00 0.00 0.00 78 1012.0
20260831013302 87 184 0.0 0.9 0.00 0.00 0.00 77 1011.9
20260831012757 87 188 1.7 7.0 0.00 0.00 0.00 76 1012.1
20260831012253 87 177 0.0 4.3 0.00 0.00 0.00 75 1012.0
20260831011751 87 156 1.7 5.2 0.00 0.00 0.00 75 1011.8
20260831011247 88 141 1.7 4.3 0.00 0.00 0.00 74 1011.9
20260831010743 88 177 0.0 1.7 0.00 0.00 0.00 74 1011.9
20260831010237 88 156 2.6 4.3 0.00 0.00 0.00 73 1011.9
20260831005733 89 168 1.7 4.3 0.00 0.00 0.00 72 1011.8
20260831005228 89 181 2.6 6.1 0.00 0.00 0.00 72 1011.7
20260831004723 89 164 5.2 7.8 0.00 0.00 0.00 71 1011.8
20260831004220 89 159 3.5 5.2 0.00 0.00 0.00 70 1011.7
20260831003715 90 148 2.6 6.1 0.00 0.00 0.00 70 1011.7
20260831003211 90 166 2.6 6.1 0.00 0.00 0.00 69 1011.7
20260831002709 90 204 1.7 5.2 0.00 0.00 0.00 68 1011.4
20260831002204 91 161 2.6 2.6 0.00 0.00 0.00 67 1011.3
20260831001700 91 153 1.7 4.3 0.00 0.00 0.00 66 1011.4
20260831001155 92 159 1.7 5.2 0.00 0.00 0.00 66 1011.4
20260831000652 92 174 3.5 6.1 0.00 0.00 0.00 65 1011.4
20260831000152 92 151 4.3 7.0 0.00 0.00 0.00 65 1011.6
20260830235650 92 160 0.9 2.6 0.00 0.00 0.00 65 1011.7
20260830235145 92 187 3.5 7.0 0.00 0.00 0.00 65 1011.5
20260830234640 92 176 1.7 2.6 0.00 0.00 0.00 65 1011.5
20260830234131 92 165 2.6 4.3 0.00 0.00 0.00 65 1011.6
20260830233626 92 199 2.6 6.1 0.00 0.00 0.00 65 1011.3
20260830233121 93 187 0.0 1.7 0.00 0.00 0.00 65 1011.6
20260830232617 93 185 0.9 6.1 0.00 0.00 0.00 65 1011.5
20260830232114 93 140 1.7 4.3 0.00 0.00 0.00 64 1011.3
20260830231609 94 180 0.0 7.0 0.00 0.00 0.00 63 1011.6
20260830231108 94 177 4.3 7.8 0.00 0.00 0.00 62 1011.5
20260830230604 96 153 0.9 7.0 0.00 0.00 0.00 61 1011.2
20260830230058 96 27 1.7 6.1 0.00 0.00 0.00 60 1011.3
20260830225553 97 174 2.6 5.2 0.00 0.00 0.00 59 1011.3
20260830225048 97 207 0.9 2.6 0.00 0.00 0.00 56 1011.1
20260830224546 96 165 1.7 2.6 0.00 0.00 0.00 59 1011.4
20260830224043 96 163 3.5 5.2 0.00 0.00 0.00 57 1011.2